Location: Newark
(43.6583°N, 1.6617°E)
Time: 22:00:10
(UTC+00:00)

Tiros 1 - Pass Details

Date: 25 August 2019
Orbit: 631 x 664 km, 48.4° (Epoch: 18 September)

Event Time Altitude Azimuth Distance (km) Brightness Sun altitude
Rises 03:57:44 0° 294° (WNW) 2,932 - -12.7°
Exits shadow 03:58:54 - 294° (WNW) 2,474 9.8 -12.5°
Reaches altitude 10° 04:00:03 10° 294° (WNW) 2,026 9.3 -12.3°
Maximum altitude 04:04:43 84° 206° (SSW) 649 7.1 -11.6°
Drops below altitude 10° 04:09:26 10° 119° (ESE) 2,040 10.2 -10.8°
Sets 04:11:46 0° 119° (ESE) 2,954 11.1 -10.4°
